SCP
0 0 0 0 0 0 0 1 1 1 2 2 1 1 1 1 1 1 1 1 2 2 2 2 2 2 2 2 1 1 1 1 1 1 1 1 1 1 1 0 1 1 1
0 0 0 0 0 0 0 1 1 1 1 1 1 1 1 1 1 1 1 1 1 2 2 2 2 2 2 2 2 1 1 1 1 1 1 1 1 1 1 1 1 1 1
0 0 0 1 0 0 0 0 0 0 0 1 1 1 1 1 1 1 1 1 1 1 2 2 3 3 3 2 2 1 1 1 1 1 1 1 1 1 1 1 1 1 1
0 0 0 1 0 0 0 0 0 0 0 0 0 1 1 1 1 1 1 1 1 1 2 2 3 3 3 2 2 1 1 1 1 1 1 1 1 1 1 1 1 1 1
0 0 0 0 0 0 0 0 0 0 0 0 0 0 0 0 0 0 0 0 1 1 1 2 2 2 3 2 2 1 1 1 1 1 1 1 1 1 1 1 1 1 1
0 0 0 0 0 0 0 0 0 0 0 0 0 0 0 0 0 0 0 0 1 1 1 1 1 2 2 2 2 2 1 1 1 1 1 1 1 1 1 1 1 1 1
0 0 0 0 0 0 0 0 0 0 0 0 0 0 0 0 1 1 1 0 0 1 1 1 1 1 2 2 2 2 2 1 1 1 1 1 1 1 1 1 1 1 1
1 0 0 1 1 0 0 0 0 0 0 0 0 0 0 1 1 1 1 0 0 1 1 1 1 1 1 2 2 2 2 1 1 1 2 2 2 1 1 1 1 1 1
1 1 1 1 1 1 0 0 0 0 0 0 0 0 1 1 1 1 0 0 0 1 1 1 1 1 1 1 2 2 2 2 2 2 2 2 2 1 1 1 1 1 1
1 1 1 1 1 1 0 0 0 0 0 0 0 0 0 1 0 0 0 0 0 0 0 0 0 1 1 1 1 1 1 2 2 2 3 3 2 2 1 1 1 1 1
2 2 2 1 1 1 0 0 0 0 0 0 0 0 0 0 0 0 0 0 0 0 0 1 0 0 1 1 1 1 1 1 2 2 3 3 2 2 1 1 1 1 1
2 2 2 2 1 1 1 0 0 0 0 0 0 0 0 0 0 0 0 0 0 0 1 1 0 0 0 1 1 1 1 1 1 2 2 2 2 2 2 2 1 1 1
3 2 2 2 2 2 1 1 1 1 0 0 0 1 1 1 1 1 1 1 0 0 1 0 0 0 0 0 0 1 1 1 1 1 1 1 1 1 1 1 1 1 1
3 2 1 1 1 1 1 1 1 1 1 1 1 1 1 1 1 1 1 1 1 0 0 0 0 0 0 0 0 1 1 1 1 1 1 1 1 1 1 1 1 1 1
3 2 1 1 1 1 1 1 1 1 1 1 2 2 2 2 2 2 2 1 1 0 0 0 0 0 0 0 0 0 1 1 0 0 0 0 0 0 0 0 0 0 1
3 2 1 1 1 1 1 1 1 1 1 2 2 2 2 2 2 2 2 1 1 0 0 1 0 0 0 0 0 0 1 1 1 0 0 0 0 0 0 0 0 0 0
2 1 1 1 1 1 1 1 1 1 1 1 2 2 2 2 2 2 1 1 1 0 1 1 1 1 1 1 0 1 1 1 1 1 0 0 0 0 0 0 0 0 0
1 1 1 1 1 1 1 1 1 1 1 1 1 1 2 1 1 1 1 1 1 1 1 1 1 1 1 1 1 1 1 1 1 1 1 0 0 0 0 0 0 0 0
1 1 1 1 1 1 1 1 1 1 1 1 1 1 1 1 1 1 1 1 1 1 1 1 1 1 1 1 1 1 1 2 1 1 1 1 0 0 0 0 0 0 0
1 1 1 1 1 1 1 1 1 1 1 1 1 1 1 1 1 2 2 2 1 1 1 1 1 1 1 1 1 1 2 2 2 1 1 0 0 0 0 0 0 0 0
1 1 1 1 1 1 1 1 1 1 1 1 1 1 1 1 1 1 2 2 2 2 1 1 1 1 1 1 2 1 1 2 2 1 0 0 0 0 0 0 0 0 0
1 1 1 1 1 1 1 1 1 1 1 1 1 1 1 1 1 1 1 2 2 2 2 1 1 1 1 1 2 1 1 1 1 1 0 0 0 0 0 0 0 0 0
2 2 2 1 1 1 1 1 1 1 1 1 0 0 1 1 1 1 1 1 1 1 1 1 1 1 1 1 1 1 1 1 0 0 0 0 0 0 0 0 0 0 0
2 2 2 2 2 1 1 1 1 1 1 1 0 0 1 1 1 1 1 1 1 1 1 1 1 1 1 1 1 1 1 1 1 0 0 0 0 0 0 0 0 0 0
2 2 2 3 2 2 2 1 1 1 1 1 1 1 1 1 1 1 1 1 1 2 2 1 1 1 1 1 1 1 1 1 1 0 0 0 0 0 0 0 0 0 0
2 2 3 3 3 2 2 2 1 1 1 1 1 1 0 0 1 1 1 1 1 2 2 2 1 1 1 1 1 1 1 1 1 1 0 0 0 0 0 0 0 0 0
Wind_Speed
2 3 2 2 2 2 3 3 3 4 3 4 4 5 4 4 3 3 3 8 8 8 9 9 9 9 8 8 8 8 8 8 7 6 6 7 6 6 7 8 8 8 8
3 3 3 3 2 2 2 3 3 3 3 3 4 3 3 3 3 3 3 5 8 8 9 9 8 8 8 7 6 6 7 6 6 6 6 6 6 6 6 6 7 7 7
3 3 3 2 2 3 3 3 3 3 3 3 3 2 2 2 3 3 3 2 3 7 8 8 8 8 7 7 7 6 6 6 6 6 6 6 6 5 5 6 6 6 6
3 3 3 2 2 3 3 3 2 3 2 2 1 1 1 1 2 2 3 3 2 3 5 8 8 7 7 7 7 6 6 6 6 6 5 5 6 6 6 6 6 6 6
4 3 2 2 2 3 2 3 2 2 2 2 1 1 1 1 1 2 3 3 3 2 2 5 7 7 7 7 7 6 6 6 5 5 6 6 6 6 6 6 6 6 6
4 4 3 3 2 2 2 2 2 2 2 1 1 1 0 1 1 2 3 3 3 3 3 3 2 4 6 6 7 6 6 6 6 6 6 6 6 6 6 6 6 6 6
3 3 3 2 2 2 1 1 2 2 1 1 2 2 2 1 1 1 1 2 3 3 3 3 2 2 2 5 6 6 6 6 6 6 6 6 6 6 6 6 6 6 6
2 3 3 2 2 2 1 1 1 1 0 1 2 2 2 3 2 1 1 2 2 2 2 4 3 3 2 1 3 6 5 5 5 5 4 4 5 5 6 7 7 7 7
2 2 2 2 1 2 1 1 2 3 1 1 1 3 2 2 1 2 0 1 2 2 2 2 3 3 3 2 1 3 5 5 5 5 5 4 4 4 4 6 8 8 8
2 2 2 2 1 1 1 1 1 1 2 0 1 1 2 3 2 1 2 1 0 2 2 2 2 3 3 2 2 3 4 5 5 5 5 5 5 5 5 5 6 8 8
1 1 2 2 1 1 1 1 1 1 1 1 1 0 0 1 1 2 1 1 1 1 0 1 1 2 2 2 2 2 4 4 4 4 4 4 4 4 4 4 4 5 6
1 2 1 1 1 1 1 0 0 1 0 0 0 0 1 1 1 2 2 1 0 1 0 0 1 1 2 2 2 3 5 5 4 4 3 3 2 2 3 3 3 4 4
1 1 1 1 0 0 0 0 1 1 1 1 0 0 0 1 1 2 3 2 1 1 0 1 0 1 1 1 1 3 4 5 4 3 3 2 2 1 1 2 2 2 2
1 0 1 1 1 1 1 1 1 0 1 1 1 0 0 0 0 2 3 3 2 1 1 1 1 0 0 1 2 2 2 3 4 3 2 2 2 2 1 0 0 1 1
1 1 1 1 0 1 1 1 1 1 1 1 0 1 1 1 0 0 1 3 4 3 2 2 1 1 1 1 2 1 1 2 3 3 2 2 2 2 1 1 1 1 1
1 2 1 1 1 1 1 1 1 1 1 1 0 1 1 1 1 1 1 1 2 4 2 2 1 1 1 1 2 1 1 2 3 3 3 3 2 2 2 2 1 1 1
2 2 1 1 2 2 1 1 1 1 1 1 1 1 1 1 1 1 1 2 2 2 3 1 1 0 0 1 0 1 1 1 2 4 3 3 3 2 2 2 2 1 1
1 1 1 1 1 1 1 1 1 1 1 0 1 1 1 1 2 1 1 2 1 1 3 2 1 0 1 1 1 1 1 2 2 3 4 4 3 3 3 3 3 2 2
1 1 1 1 0 0 1 0 0 1 1 1 0 0 0 1 1 1 1 1 1 1 1 2 1 1 1 1 0 1 1 1 2 2 4 4 4 4 3 3 3 3 2
1 1 0 0 1 0 0 0 1 0 0 1 1 0 0 0 1 1 1 1 1 1 1 1 0 0 1 1 0 0 1 1 1 0 1 2 3 4 4 4 4 3 3
0 0 0 1 1 1 0 0 0 0 0 0 1 1 0 0 0 1 1 1 1 1 0 0 0 0 1 0 2 2 1 1 2 1 1 1 1 1 3 4 5 5 4
0 0 0 1 1 2 1 1 1 1 1 1 1 1 1 1 1 1 0 1 3 3 2 2 1 2 3 2 2 1 1 0 2 1 1 1 1 2 3 3 5 5 5
0 0 1 1 1 2 2 2 1 1 1 1 1 1 2 2 1 0 1 1 1 2 4 4 4 4 3 3 2 2 2 2 3 2 2 1 1 2 3 4 7 7 6
1 1 1 1 1 2 2 2 2 1 1 1 2 2 2 2 2 1 1 1 2 2 3 3 4 5 5 4 4 4 4 2 2 1 2 2 2 2 2 2 6 7 7
1 1 1 1 1 3 2 2 1 1 1 2 2 2 2 2 2 1 1 2 3 4 3 4 4 5 6 5 4 2 1 1 2 2 1 2 2 1 1 2 4 7 7
1 1 2 2 2 2 2 2 1 1 1 2 2 2 2 2 2 1 1 2 3 4 3 3 3 4 3 4 5 4 4 3 2 2 2 2 2 1 1 2 2 2 4
Wind_Direction
89 79 75 78 78 86 101 101 93 88 84 89 103 112 119 132 138 144 150 159 163 166 167 171 173 171 175 182 187 190 193 188 186 189 192 196 187 183 190 194 196 198 199
95 92 86 85 89 99 105 108 108 103 95 92 98 110 124 139 143 148 150 158 166 169 172 175 175 173 175 177 181 188 191 189 189 189 190 189 186 189 191 195 199 203 203
98 101 90 85 92 95 92 93 90 86 89 86 90 108 123 130 141 150 152 149 167 177 178 180 182 180 179 178 177 186 185 182 183 185 190 193 194 199 202 206 207 207 205
90 94 93 86 86 87 90 97 94 89 86 94 103 119 116 124 142 158 158 160 171 182 185 187 185 182 180 176 175 183 186 189 189 191 195 198 201 204 206 211 212 213 211
92 94 94 92 87 85 87 103 92 102 109 117 137 139 142 165 182 171 166 176 179 176 186 191 188 182 181 182 183 185 187 194 201 205 206 206 207 210 211 213 214 214 215
90 93 93 86 92 89 79 88 99 90 120 148 140 99 241 217 196 183 185 176 181 186 192 188 186 193 194 192 191 192 193 200 204 208 212 215 215 216 214 214 217 218 218
86 95 100 95 90 96 107 117 112 99 103 111 84 25 351 314 212 197 181 171 194 197 178 176 174 177 199 204 200 194 199 202 203 208 216 218 218 219 217 216 218 221 223
92 103 104 109 105 98 77 79 117 116 144 139 131 100 14 348 338 248 170 181 189 168 163 175 167 168 173 208 199 192 195 201 200 205 209 213 215 219 223 222 221 223 225
83 98 110 116 117 125 136 154 152 146 170 268 160 146 151 215 303 334 345 143 156 148 172 167 168 174 173 183 209 209 202 203 211 214 214 213 208 211 224 230 225 222 224
69 91 101 109 110 106 119 141 132 144 146 204 300 205 181 163 157 291 336 358 119 150 182 182 173 187 182 183 194 196 212 214 211 217 218 218 212 212 224 234 232 227 224
48 75 103 101 98 90 107 80 82 113 137 162 203 223 92 95 133 150 222 309 353 342 205 182 170 186 198 195 201 211 217 219 215 220 224 223 219 225 230 236 236 229 225
24 34 70 82 87 94 131 149 143 120 115 118 124 133 153 159 180 158 173 198 211 303 3 75 166 198 187 192 209 212 220 213 213 225 226 221 223 232 228 232 236 238 238
22 357 43 59 49 130 99 73 80 62 62 87 105 165 174 200 179 159 147 159 175 266 9 354 274 209 182 170 216 208 212 201 199 205 212 198 187 198 215 229 225 229 241
186 263 72 79 60 56 61 67 56 13 56 89 62 60 43 329 148 157 157 150 136 355 353 283 328 267 136 187 209 189 207 188 184 185 187 175 158 146 128 83 143 186 195
132 74 57 83 50 40 43 74 77 21 34 39 31 44 48 345 21 123 145 152 153 164 230 256 263 282 256 209 207 182 187 184 178 176 171 153 144 139 132 104 79 90 117
100 95 57 55 38 27 40 61 61 20 33 351 20 45 24 353 18 62 107 115 134 152 183 230 216 226 228 203 179 169 197 180 193 181 173 168 153 142 131 111 91 97 98
99 104 101 68 35 19 20 37 348 20 46 348 1 37 8 14 38 29 67 91 96 124 147 248 260 241 164 195 197 198 195 197 226 200 189 185 178 174 156 143 135 128 118
109 113 96 83 61 28 20 29 358 23 51 3 341 22 353 24 37 32 76 90 101 127 144 173 275 275 247 231 222 209 204 199 224 210 201 195 182 176 168 154 145 130 116
97 90 96 101 117 53 11 339 76 57 26 347 342 66 333 42 32 43 68 91 96 86 107 136 219 258 288 258 340 297 285 263 228 198 186 184 183 175 168 158 152 141 134
118 94 111 208 240 237 31 31 64 83 15 351 355 33 287 122 141 116 77 112 114 90 89 114 174 266 288 279 149 266 308 299 270 223 192 183 194 197 189 176 172 168 168
155 154 110 325 304 260 243 109 207 235 239 311 347 328 274 97 133 170 149 174 149 144 149 171 228 288 285 279 240 236 246 286 288 222 173 222 196 219 220 207 196 194 191
7 92 119 296 300 295 299 267 183 216 206 192 264 301 297 300 358 21 57 184 183 184 195 196 220 225 239 233 233 237 192 111 280 256 161 239 180 222 234 223 218 207 201
169 118 259 280 286 301 320 308 301 212 194 200 220 252 284 290 306 277 306 319 265 219 200 192 207 228 224 222 203 227 219 201 227 228 152 217 212 230 234 226 212 207 207
196 218 244 268 291 317 332 314 316 253 199 215 227 223 231 267 266 228 247 299 285 257 230 209 207 225 223 216 203 208 217 225 268 252 156 189 217 226 233 222 212 206 212
214 231 231 235 264 298 326 326 330 272 234 260 257 243 211 225 266 258 209 268 293 290 276 245 232 238 237 227 205 168 171 157 262 261 206 174 210 223 238 237 219 207 212
218 236 251 244 235 262 296 301 259 210 251 281 284 263 235 236 264 268 204 217 258 271 276 282 285 287 262 244 224 196 185 186 205 246 224 177 185 148 267 268 225 203 208